<?xml version="1.0" encoding="UTF-8"?>
<gpx
version="1.1"
creator="Kashmir3D 9.350 - http://www.kashmir3d.com"
xmlns:xsi="http://www.w3.org/2001/XMLSchema-instance"
xmlns="http://www.topografix.com/GPX/1/1"
xmlns:kashmir3d="http://www.kashmir3d.com/namespace/kashmir3d"
xsi:schemaLocation="http://www.topografix.com/GPX/1/1 http://www.topografix.com/GPX/1/1/gpx.xsd
	http://www.kashmir3d.com/namespace/kashmir3d http://www.kashmir3d.com/namespace/kashmir3d.xsd">
<trk>
 <name>BOKURANOHIROBA.KML(ぼくらの広場)</name>
 <number>1</number>
 <extensions>
 <kashmir3d:line_color>0000ff</kashmir3d:line_color>
 <kashmir3d:line_size>3</kashmir3d:line_size>
 <kashmir3d:line_style>1</kashmir3d:line_style>
 <kashmir3d:icon>901001</kashmir3d:icon>
 </extensions>
<trkseg>
<trkpt lat="34.665752" lon="135.671296">
 <ele>455.100000</ele>
 <time>2020-03-27T21:46:37Z</time>
</trkpt>
<trkpt lat="34.665632" lon="135.671296">
 <ele>455.100000</ele>
 <time>2020-03-27T21:46:37Z</time>
</trkpt>
<trkpt lat="34.665486" lon="135.671307">
 <ele>456.200000</ele>
 <time>2020-03-27T21:46:37Z</time>
</trkpt>
<trkpt lat="34.665374" lon="135.671275">
 <ele>457.000000</ele>
 <time>2020-03-27T21:46:37Z</time>
</trkpt>
<trkpt lat="34.665220" lon="135.671253">
 <ele>459.000000</ele>
 <time>2020-03-27T21:46:37Z</time>
</trkpt>
<trkpt lat="34.665099" lon="135.671232">
 <ele>461.300000</ele>
 <time>2020-03-27T21:46:37Z</time>
</trkpt>
<trkpt lat="34.664962" lon="135.671221">
 <ele>463.200000</ele>
 <time>2020-03-27T21:46:37Z</time>
</trkpt>
<trkpt lat="34.664816" lon="135.671189">
 <ele>465.200000</ele>
 <time>2020-03-27T21:46:37Z</time>
</trkpt>
<trkpt lat="34.664636" lon="135.671157">
 <ele>466.000000</ele>
 <time>2020-03-27T21:46:37Z</time>
</trkpt>
<trkpt lat="34.664516" lon="135.671146">
 <ele>470.600000</ele>
 <time>2020-03-27T21:46:37Z</time>
</trkpt>
<trkpt lat="34.664378" lon="135.671135">
 <ele>475.900000</ele>
 <time>2020-03-27T21:46:37Z</time>
</trkpt>
<trkpt lat="34.664215" lon="135.671157">
 <ele>477.600000</ele>
 <time>2020-03-27T21:46:37Z</time>
</trkpt>
<trkpt lat="34.664078" lon="135.671146">
 <ele>481.200000</ele>
 <time>2020-03-27T21:46:37Z</time>
</trkpt>
<trkpt lat="34.663966" lon="135.671039">
 <ele>485.600000</ele>
 <time>2020-03-27T21:46:37Z</time>
</trkpt>
<trkpt lat="34.663829" lon="135.670985">
 <ele>490.500000</ele>
 <time>2020-03-27T21:46:37Z</time>
</trkpt>
<trkpt lat="34.663735" lon="135.670964">
 <ele>495.100000</ele>
 <time>2020-03-27T21:46:37Z</time>
</trkpt>
<trkpt lat="34.663623" lon="135.670921">
 <ele>497.800000</ele>
 <time>2020-03-27T21:46:37Z</time>
</trkpt>
<trkpt lat="34.663400" lon="135.670835">
 <ele>501.900000</ele>
 <time>2020-03-27T21:46:37Z</time>
</trkpt>
<trkpt lat="34.663228" lon="135.670803">
 <ele>506.000000</ele>
 <time>2020-03-27T21:46:37Z</time>
</trkpt>
<trkpt lat="34.663091" lon="135.670760">
 <ele>508.600000</ele>
 <time>2020-03-27T21:46:37Z</time>
</trkpt>
<trkpt lat="34.662936" lon="135.670652">
 <ele>511.600000</ele>
 <time>2020-03-27T21:46:37Z</time>
</trkpt>
<trkpt lat="34.662851" lon="135.670642">
 <ele>513.200000</ele>
 <time>2020-03-27T21:46:37Z</time>
</trkpt>
<trkpt lat="34.662782" lon="135.670631">
 <ele>514.400000</ele>
 <time>2020-03-27T21:46:37Z</time>
</trkpt>
<trkpt lat="34.662662" lon="135.670642">
 <ele>517.400000</ele>
 <time>2020-03-27T21:46:37Z</time>
</trkpt>
<trkpt lat="34.662550" lon="135.670663">
 <ele>519.600000</ele>
 <time>2020-03-27T21:46:37Z</time>
</trkpt>
<trkpt lat="34.662421" lon="135.670685">
 <ele>520.800000</ele>
 <time>2020-03-27T21:46:37Z</time>
</trkpt>
<trkpt lat="34.662310" lon="135.670706">
 <ele>521.400000</ele>
 <time>2020-03-27T21:46:37Z</time>
</trkpt>
<trkpt lat="34.662190" lon="135.670706">
 <ele>521.700000</ele>
 <time>2020-03-27T21:46:37Z</time>
</trkpt>
<trkpt lat="34.662138" lon="135.670685">
 <ele>521.800000</ele>
 <time>2020-03-27T21:46:37Z</time>
</trkpt>
<trkpt lat="34.662147" lon="135.670609">
 <ele>521.400000</ele>
 <time>2020-03-27T21:46:37Z</time>
</trkpt>
<trkpt lat="34.662112" lon="135.670534">
 <ele>520.900000</ele>
 <time>2020-03-27T21:46:37Z</time>
</trkpt>
<trkpt lat="34.662104" lon="135.670470">
 <ele>520.400000</ele>
 <time>2020-03-27T21:46:37Z</time>
</trkpt>
<trkpt lat="34.662130" lon="135.670384">
 <ele>519.400000</ele>
 <time>2020-03-27T21:46:37Z</time>
</trkpt>
<trkpt lat="34.662173" lon="135.670320">
 <ele>519.400000</ele>
 <time>2020-03-27T21:46:37Z</time>
</trkpt>
<trkpt lat="34.662215" lon="135.670159">
 <ele>520.600000</ele>
 <time>2020-03-27T21:46:37Z</time>
</trkpt>
<trkpt lat="34.662276" lon="135.670052">
 <ele>521.000000</ele>
 <time>2020-03-27T21:46:37Z</time>
</trkpt>
<trkpt lat="34.662353" lon="135.669966">
 <ele>521.300000</ele>
 <time>2020-03-27T21:46:37Z</time>
</trkpt>
<trkpt lat="34.662413" lon="135.669891">
 <ele>521.500000</ele>
 <time>2020-03-27T21:46:37Z</time>
</trkpt>
<trkpt lat="34.662439" lon="135.669698">
 <ele>521.500000</ele>
 <time>2020-03-27T21:46:37Z</time>
</trkpt>
<trkpt lat="34.662447" lon="135.669494">
 <ele>520.600000</ele>
 <time>2020-03-27T21:46:37Z</time>
</trkpt>
<trkpt lat="34.662507" lon="135.669343">
 <ele>520.200000</ele>
 <time>2020-03-27T21:46:37Z</time>
</trkpt>
<trkpt lat="34.662542" lon="135.669183">
 <ele>521.200000</ele>
 <time>2020-03-27T21:46:37Z</time>
</trkpt>
<trkpt lat="34.662593" lon="135.669032">
 <ele>522.300000</ele>
 <time>2020-03-27T21:46:37Z</time>
</trkpt>
<trkpt lat="34.662619" lon="135.668828">
 <ele>525.100000</ele>
 <time>2020-03-27T21:46:37Z</time>
</trkpt>
<trkpt lat="34.662636" lon="135.668646">
 <ele>525.500000</ele>
 <time>2020-03-27T21:46:37Z</time>
</trkpt>
<trkpt lat="34.662645" lon="135.668528">
 <ele>525.900000</ele>
 <time>2020-03-27T21:46:37Z</time>
</trkpt>
<trkpt lat="34.662619" lon="135.668378">
 <ele>526.600000</ele>
 <time>2020-03-27T21:46:37Z</time>
</trkpt>
<trkpt lat="34.662567" lon="135.668249">
 <ele>526.200000</ele>
 <time>2020-03-27T21:46:37Z</time>
</trkpt>
<trkpt lat="34.662550" lon="135.668120">
 <ele>525.200000</ele>
 <time>2020-03-27T21:46:37Z</time>
</trkpt>
<trkpt lat="34.662550" lon="135.667992">
 <ele>523.900000</ele>
 <time>2020-03-27T21:46:37Z</time>
</trkpt>
<trkpt lat="34.662550" lon="135.668120">
 <ele>525.200000</ele>
 <time>2020-03-27T21:46:37Z</time>
</trkpt>
<trkpt lat="34.662567" lon="135.668249">
 <ele>526.200000</ele>
 <time>2020-03-27T21:46:37Z</time>
</trkpt>
<trkpt lat="34.662619" lon="135.668378">
 <ele>526.600000</ele>
 <time>2020-03-27T21:46:37Z</time>
</trkpt>
<trkpt lat="34.662645" lon="135.668528">
 <ele>525.900000</ele>
 <time>2020-03-27T21:46:37Z</time>
</trkpt>
<trkpt lat="34.662636" lon="135.668646">
 <ele>525.500000</ele>
 <time>2020-03-27T21:46:37Z</time>
</trkpt>
<trkpt lat="34.662619" lon="135.668828">
 <ele>525.100000</ele>
 <time>2020-03-27T21:46:37Z</time>
</trkpt>
<trkpt lat="34.662593" lon="135.669032">
 <ele>522.300000</ele>
 <time>2020-03-27T21:46:37Z</time>
</trkpt>
<trkpt lat="34.662542" lon="135.669183">
 <ele>521.200000</ele>
 <time>2020-03-27T21:46:37Z</time>
</trkpt>
<trkpt lat="34.662507" lon="135.669343">
 <ele>520.200000</ele>
 <time>2020-03-27T21:46:37Z</time>
</trkpt>
<trkpt lat="34.662447" lon="135.669494">
 <ele>520.600000</ele>
 <time>2020-03-27T21:46:37Z</time>
</trkpt>
<trkpt lat="34.662439" lon="135.669698">
 <ele>521.500000</ele>
 <time>2020-03-27T21:46:37Z</time>
</trkpt>
<trkpt lat="34.662413" lon="135.669891">
 <ele>521.500000</ele>
 <time>2020-03-27T21:46:37Z</time>
</trkpt>
<trkpt lat="34.662353" lon="135.669966">
 <ele>521.300000</ele>
 <time>2020-03-27T21:46:37Z</time>
</trkpt>
<trkpt lat="34.662276" lon="135.670052">
 <ele>521.000000</ele>
 <time>2020-03-27T21:46:37Z</time>
</trkpt>
<trkpt lat="34.662215" lon="135.670159">
 <ele>520.600000</ele>
 <time>2020-03-27T21:46:37Z</time>
</trkpt>
<trkpt lat="34.662173" lon="135.670320">
 <ele>519.400000</ele>
 <time>2020-03-27T21:46:37Z</time>
</trkpt>
<trkpt lat="34.662130" lon="135.670384">
 <ele>519.400000</ele>
 <time>2020-03-27T21:46:37Z</time>
</trkpt>
<trkpt lat="34.662104" lon="135.670470">
 <ele>520.400000</ele>
 <time>2020-03-27T21:46:37Z</time>
</trkpt>
<trkpt lat="34.662112" lon="135.670534">
 <ele>520.900000</ele>
 <time>2020-03-27T21:46:37Z</time>
</trkpt>
<trkpt lat="34.662147" lon="135.670609">
 <ele>521.400000</ele>
 <time>2020-03-27T21:46:37Z</time>
</trkpt>
<trkpt lat="34.662138" lon="135.670685">
 <ele>521.800000</ele>
 <time>2020-03-27T21:46:37Z</time>
</trkpt>
<trkpt lat="34.662190" lon="135.670706">
 <ele>521.700000</ele>
 <time>2020-03-27T21:46:37Z</time>
</trkpt>
<trkpt lat="34.662310" lon="135.670706">
 <ele>521.400000</ele>
 <time>2020-03-27T21:46:37Z</time>
</trkpt>
<trkpt lat="34.662421" lon="135.670685">
 <ele>520.800000</ele>
 <time>2020-03-27T21:46:37Z</time>
</trkpt>
<trkpt lat="34.662550" lon="135.670663">
 <ele>519.600000</ele>
 <time>2020-03-27T21:46:37Z</time>
</trkpt>
<trkpt lat="34.662662" lon="135.670642">
 <ele>517.400000</ele>
 <time>2020-03-27T21:46:37Z</time>
</trkpt>
<trkpt lat="34.662782" lon="135.670631">
 <ele>514.400000</ele>
 <time>2020-03-27T21:46:37Z</time>
</trkpt>
<trkpt lat="34.662851" lon="135.670642">
 <ele>513.200000</ele>
 <time>2020-03-27T21:46:37Z</time>
</trkpt>
<trkpt lat="34.662936" lon="135.670652">
 <ele>511.600000</ele>
 <time>2020-03-27T21:46:37Z</time>
</trkpt>
<trkpt lat="34.663091" lon="135.670760">
 <ele>508.600000</ele>
 <time>2020-03-27T21:46:37Z</time>
</trkpt>
<trkpt lat="34.663228" lon="135.670803">
 <ele>506.000000</ele>
 <time>2020-03-27T21:46:37Z</time>
</trkpt>
<trkpt lat="34.663400" lon="135.670835">
 <ele>501.900000</ele>
 <time>2020-03-27T21:46:37Z</time>
</trkpt>
<trkpt lat="34.663623" lon="135.670921">
 <ele>497.800000</ele>
 <time>2020-03-27T21:46:37Z</time>
</trkpt>
<trkpt lat="34.663735" lon="135.670964">
 <ele>495.100000</ele>
 <time>2020-03-27T21:46:37Z</time>
</trkpt>
<trkpt lat="34.663829" lon="135.670985">
 <ele>490.500000</ele>
 <time>2020-03-27T21:46:37Z</time>
</trkpt>
<trkpt lat="34.663966" lon="135.671039">
 <ele>485.600000</ele>
 <time>2020-03-27T21:46:37Z</time>
</trkpt>
<trkpt lat="34.664078" lon="135.671146">
 <ele>481.200000</ele>
 <time>2020-03-27T21:46:37Z</time>
</trkpt>
<trkpt lat="34.664215" lon="135.671157">
 <ele>477.600000</ele>
 <time>2020-03-27T21:46:37Z</time>
</trkpt>
<trkpt lat="34.664378" lon="135.671135">
 <ele>475.900000</ele>
 <time>2020-03-27T21:46:37Z</time>
</trkpt>
<trkpt lat="34.664516" lon="135.671146">
 <ele>470.600000</ele>
 <time>2020-03-27T21:46:37Z</time>
</trkpt>
<trkpt lat="34.664636" lon="135.671157">
 <ele>466.000000</ele>
 <time>2020-03-27T21:46:37Z</time>
</trkpt>
<trkpt lat="34.664816" lon="135.671189">
 <ele>465.200000</ele>
 <time>2020-03-27T21:46:37Z</time>
</trkpt>
<trkpt lat="34.664962" lon="135.671221">
 <ele>463.200000</ele>
 <time>2020-03-27T21:46:37Z</time>
</trkpt>
<trkpt lat="34.665099" lon="135.671232">
 <ele>461.300000</ele>
 <time>2020-03-27T21:46:37Z</time>
</trkpt>
<trkpt lat="34.665220" lon="135.671253">
 <ele>459.000000</ele>
 <time>2020-03-27T21:46:37Z</time>
</trkpt>
<trkpt lat="34.665374" lon="135.671275">
 <ele>457.000000</ele>
 <time>2020-03-27T21:46:37Z</time>
</trkpt>
<trkpt lat="34.665486" lon="135.671307">
 <ele>456.200000</ele>
 <time>2020-03-27T21:46:37Z</time>
</trkpt>
<trkpt lat="34.665632" lon="135.671296">
 <ele>455.100000</ele>
 <time>2020-03-27T21:46:37Z</time>
</trkpt>
<trkpt lat="34.665752" lon="135.671296">
 <ele>455.100000</ele>
 <time>2020-03-27T21:46:37Z</time>
</trkpt>
</trkseg>
</trk>
</gpx>
